Other Public Products
Issued by NWS Grand Forks, ND

Home | Current Version | Previous Version | Graphics & Text | Print | Product List | Glossary On
Versions: 1 2 3 4 5 6 7 8 9 10 11 12 13 14 15 16 17 18 19 20 21 22 23 24 25 26 27 28 29 30 31 32 33 34 35 36 37 38 39 40 41 42 43 44 45 46 47 48 49 50
000
FPUS83 KFGF 272331
OPUFGF
PRAIRIE TO PINES WEATHER ROUNDUP
NATIONAL WEATHER SERVICE EASTERN NORTH DAKOTA/GRAND FORKS ND
500 PM CST SAT DEC 27 2014

 **SATELLITE DATA USED TO AUGMENT SKY COVER AT AUTOMATED STATIONS**
 *****  WEATHER ACROSS EASTERN NORTH DAKOTA  *****

CITY           SKY/WX    TMP DP  RH WIND       PRES   REMARKS
GRAND FORKS    LGT SNOW  19  16  86 CALM      30.03R FOG
GRAND FORKS AF FLURRIES  19  19 100 SW1       30.03R
GRAND CITY NWS   N/A     19 N/A N/A MISG        N/A
BUXTON           N/A     20  18  92 SE3         N/A
DEVILS LAKE    CLOUDY    21  16  79 W3        29.97R
FARGO          CLOUDY    25  18  74 W8        30.03S WCI  16
WAHPETON ARPT  MOCLDY    21  18  86 SW5       30.06S WCI  15
$$

 *****  WEATHER ACROSS CENTRAL AND WESTERN NORTH DAKOTA  *****

CITY           SKY/WX    TMP DP  RH WIND       PRES   REMARKS
JAMESTOWN      LGT SNOW  23  19  85 W3        29.98R FOG
BISMARCK       MOCLDY    26  18  71 W12       30.00R WCI  16
MINOT          CLOUDY    22  15  75 NW8       29.97R WCI  12
MINOT AFB      CLOUDY    19  18  93 N6        29.98R WCI  11
GARRISON         N/A     22  16  78 NW7       29.96R WCI  13
WILLISTON      CLOUDY    24  16  71 N5        29.99R WCI  18
DICKINSON      PTCLDY    21  13  71 W9        29.96R WCI  11
HETTINGER      MOCLDY    25  15  66 W12       30.00R WCI  14
$$

 *****  OTHER OBSERVATIONS NORTHEAST NORTH DAKOTA  *****

CITY           SKY/WX    TMP DP  RH WIND       PRES   REMARKS
WALHALLA       FLURRIES  10  10 100 NE10      30.06R WCI  -3
LANGDON        LGT SNOW  16  14  93 N7        29.97R WCI   6
CAVALIER       LGT SNOW  12   9  85 N9        30.05R WCI   0
GRAFTON        NOT AVBL
CANDO          CLOUDY    21  16  79 N5        29.98S WCI  15
FORT TOTTEN    NOT AVBL
ROLLA          FLURRIES  14  14 100 N8        29.97R WCI   3
RUGBY          CLOUDY    19  18  93 NW12      29.98R WCI   7
 ***** THE ABOVE OBSERVATIONS ARE NON NWS ARE NOT QUALITY
        CONTROLLED AND MAY MIS-REPORT RAIN FOR SNOW...
$$

 *****  OTHER OBSERVATIONS SOUTHEAST NORTH DAKOTA *****

CITY           SKY/WX    TMP DP  RH WIND       PRES   REMARKS
COOPERSTOWN    NOT AVBL
VALLEY CITY    CLOUDY    21  21 100 CALM      30.00R
OAKES            N/A     23  19  86 S7        30.03S WCI  15
GWINNER        CLOUDY    27  21  80 SW13      30.03S WCI  16
BUFFALO        NOT AVBL
WYNDMERE         N/A     21  18  86 SW10        N/A  WCI  10
 ***** THE ABOVE OBSERVATIONS ARE NON NWS ARE NOT QUALITY
       CONTROLLED AND MAY MIS-REPORT RAIN FOR SNOW...
$$

  *****  WEATHER ACROSS NORTHERN MINNESOTA  *****

CITY           SKY/WX    TMP DP  RH WIND       PRES   REMARKS
FLAG ISLAND    CLOUDY    12   7  79 W13       29.97R WCI  -3
WARROAD        LGT SNOW  14  10  85 W6        29.99R WCI   5
ROSEAU         LGT SNOW  16  10  79 W7        30.00R WCI   6
HALLOCK        LGT SNOW  14  10  85 N12       30.04R WCI   0
THF RVR FALLS  MOCLDY    16  10  79 SW3       30.01S
HALSTAD          N/A     21  16  81 E5          N/A  WCI  14
FOSSTON        CLOUDY    16  12  86 SW7       30.01S WCI   6
BAUDETTE       LGT SNOW  14   8  77 SW8       29.97R WCI   3
WASKISH        MOCLDY    14  10  85 CALM      29.99S
CROOKSTON      FLURRIES  18  16  93 CALM      30.04R
$$
  *****  WEATHER ACROSS CENTRAL AND WEST MINNESOTA  *****

CITY           SKY/WX    TMP DP  RH WIND       PRES   REMARKS
BEMIDJI        CLOUDY    15  10  81 W9        29.99F WCI   3
PARK RAPIDS    CLOUDY    19  12  74 W12       30.00R WCI   7
WADENA         PTCLDY    16  12  86 W3        30.02R
DETROIT LAKES  CLOUDY    21  18  86 SW6       30.02S WCI  14
MOORHEAD       CLOUDY    25  23  93 SW5       30.04R WCI  19
FERGUS FALLS   MOCLDY    19  16  86 SW5       30.07F WCI  13
ELBOW LAKE     FAIR      20  17  89 W8        30.05R WCI  10
MORRIS MN      CLEAR     18  16  93 SW6       30.06S WCI   9
STAPLES        PTCLDY    18  12  79 W7        30.02R WCI   8
WHEATON        CLEAR     19  16  86 SW5       30.09S WCI  13
$$
  *****  WEATHER ELSEWHERE ACROSS MINNESOTA  *****

CITY           SKY/WX    TMP DP  RH WIND       PRES   REMARKS
DULUTH         PTCLDY    20   4  50 W5        29.95R WCI  13
INTRNTL FALLS  PTCLDY    12   5  73 W8        29.96S WCI   0
ELY            CLOUDY    16   7  67 CALM      29.93F
CLOQUET        CLOUDY    21   5  49 SW3       29.97S
BRAINERD       CLOUDY    22   4  46 W6        30.01S WCI  14
HIBBING        CLOUDY    20   4  50 W5        29.96S WCI  13
ALEXANDRIA     CLEAR     17  12  80 SW8       30.04S WCI   7
SAINT CLOUD    CLEAR     21   7  54 SW7       30.06S WCI  12
MINNEAPOLIS    CLEAR     18  10  71 SW10      30.11R WCI   6
$$

  *****  WEATHER ACROSS SOUTH DAKOTA  *****

CITY           SKY/WX    TMP DP  RH WIND       PRES   REMARKS
SIOUX FALLS    CLEAR     14   8  77 SW6       30.15R WCI   5
BROOKINGS      NOT AVBL
WATERTOWN      CLEAR     13   9  84 SW7       30.06R WCI   3
HURON          CLEAR     17  11  77 SW8       30.12R WCI   7
SISSETON         N/A     22  15  75 W10       30.05S WCI  11
ABERDEEN       CLEAR     22  16  78 SW7       30.07S WCI  13
MITCHELL       CLEAR     19  12  74 SW9       30.15S WCI   8
PIERRE         CLEAR     23  17  78 SW7       30.06F WCI  15
MOBRIDGE       CLOUDY    25  18  74 SW5       30.00S WCI  19
RAPID CITY     MOCLDY    20  13  74 CALM      30.02S
$$

  *****  SOME WEATHER IN NEARBY STATES *****

CITY           SKY/WX    TMP DP  RH WIND       PRES   REMARKS
GLASGOW MT     CLOUDY    29  18  63 SW3       29.95S
GREAT FALLS MT PTCLDY    27  17  66 SW18      29.90F WCI  14
CHEYENNE WY    PTCLDY    18   3  52 SW13      30.01R WCI   5
SCOTTSBLUFF NE CLEAR     20  10  65 W9        30.08S WCI   9
OMAHA NE       PTCLDY    24  16  71 W7        30.25S WCI  16
DES MOINES IA  MOCLDY    26  19  74 W12       30.21R WCI  16
DAVENPORT IA   CLOUDY    31  25  78 W17       30.13R WCI  19
CHICAGO IL     CLOUDY    34  28  79 W17G25    30.04R WCI  23
EAU CLAIRE WI  CLEAR     19  14  81 W7        30.07R WCI  10
LA CROSSE WI   CLOUDY    26  20  77 W13       30.12R WCI  15
$$

  *****  SOME NATIONAL WEATHER *****

CITY           SKY/WX    TMP DP  RH WIND       PRES   REMARKS
LA GUARDIA NY  MOCLDY    48  33  56 S8        30.17R
RALEIGH NC     MOCLDY    55  38  52 S5        30.23S
ATLANTA GA     CLOUDY    57  44  62 S6        30.22F
NEW ORLEANS LA CLOUDY    70  68  93 S8        30.06R FOG
OKLAHOMA CITY  PTCLDY    35  20  54 N14       30.26S
ALBUQUERQUE NM PTCLDY    37  11  34 W9        30.20S
SALT LAKE CITY CLOUDY    27  14  58 S8        30.32R WCI  19
LOS ANGELES CA MOSUNNY   59  29  31 SW10      30.28S
BOISE ID       CLOUDY    31  20  63 SE7       30.25S WCI  24
SEATTLE WA     MOCLDY    49  43  80 SW10G21   30.03S
$$

*** WEATHER ACROSS MANITOBA...SASKATCHEWAN AND ONTARIO ***
                ***ONTARIO***

CITY           SKY/WX    TMP DP  RH WIND       PRES   REMARKS
GERALDTON      LGT SNOW  16  14  93 NE3       29.85S VSB 1
THUNDER BAY    PTCLDY    12   7  79 NW7       29.96  WCI   2
SIOUX LOOKOUT  FLURRIES   5   1  85 W6        29.91  WCI  -6
TORONTO        MOCLDY    48  39  71 SW21G28   29.89F
BIG TROUT LK   FLURRIES  -4  -8  84 SW3       29.92S
PICKLE LAKE    CLOUDY     0  -4  85 W6        29.88R WCI -12
DRYDEN         FLURRIES   9   7  92 W9        29.91R WCI  -5
KENORA         FLURRIES   7   3  85 W6        29.94R WCI  -3
$$
                *** MANITOBA***

CITY           SKY/WX    TMP DP  RH WIND       PRES   REMARKS
BRANDON        MOCLDY    10   0  61 NW13      30.04R WCI  -5
DAUPHIN        CLOUDY    -4  -9  77 E3        30.14R
ISLAND LAKE    PTCLDY   -15 -24  64 W8        29.99R WCI -32
PILOT MOUND      N/A     12  10  92 N8          N/A  WCI   1
THE PAS        PTCLDY   -17 -22  76 W10       30.15R WCI -37
THOMPSON       PTCLDY   -17 -24  70 NW8       30.06R WCI -34
WINNIPEG       PTCLDY    -2  -8  78 N5        30.08  WCI -12
CHURCHILL      CRYSTALS -11 -17  77 N22       30.06  BLWGSNOWWCI -38
GILLAM         LGT SNOW -17 -22  76 W12       29.99S WCI -38
$$
                ***SASKATCHEWAN***

CITY           SKY/WX    TMP DP  RH WIND       PRES   REMARKS
ESTEVAN        MOCLDY   N/A N/A N/A NW7         N/A
KINDERSLEY     CLOUDY    12   9  85 E15       29.94R WCI  -4
LLOYDMINSTER   FLURRIES   7   3  85 SE13      29.98R WCI  -9
PRINCE ALBERT  PTCLDY   -15 -20  76 NE5       30.16  WCI -27
REGINA         LGT SNOW  10   7  85 N6        30.03R FOG     WCI   1
YORKTON        CLEAR     -9 -15  77 NW7       30.08R WCI -24
N. BATTLEFORD  CLOUDY     1  -2  85 E14       30.07R WCI -17


USA.gov is the U.S. government's official web portal to all federal, state and local government web resources and services.